Regional Weather Roundup
Issued by NWS

Home | Current Version | Previous Version | Graphics & Text | Print | Product List | Glossary Off
Versions: 1 2 3 4 5 6 7 8 9 10 11 12 13 14 15 16 17 18 19 20 21 22 23 24 25 26 27 28 29 30 31 32 33 34 35 36 37 38 39 40 41 42 43 44 45 46 47 48 49 50

000
ASUS43 KDMX 020004
RWRIA

WEATHER ROUNDUP FOR IOWA
NATIONAL WEATHER SERVICE DES MOINES IA
  ISSUED BY NWS QUAD CITIES IA IL
600 PM CST SUN MAR 01 2015

NOTE: "FAIR" INDICATES FEW OR NO CLOUDS BELOW 12,000 FEET WITH NO
SIGNIFICANT WEATHER AND/OR OBSTRUCTIONS TO VISIBILITY.

* - THESE STATIONS ARE NOT NWS STATIONS...THUS NOT UNDER NWS
QUALITY CONTROL.  THEY ALSO DO NOT REPORT WEATHER SUCH
AS PRECIPITATION OR FOG.

IAZ001>003-012>014-020>022-031>034-043>046-020100-
   NORTHWEST IOWA

CITY           SKY/WX    TMP DP  RH WIND       PRES   REMARKS
CARROLL *      CLEAR     27  18  69 W5        30.35S WCI  21
CHEROKEE *     CLOUDY    31  17  55 W5        30.33R WCI  26
6HR MIN TEMP:  25; 6HR MAX TEMP:  33;

DENNISON *     CLEAR     30  18  59 CALM      30.33S
LE MARS *      MOCLDY    32  18  55 N10G21    30.35R WCI  24
ORANGE CITY *  PTCLDY    30  16  55 NW9       30.33R WCI  22
SHELDON *      PTCLDY    28  18  64 NW12G18   30.32R WCI  18
SIOUX CITY     PTCLDY    37  12  35 NW13      30.35R WCI  29
6HR MIN TEMP:  30; 6HR MAX TEMP:  39;

SPENCER        CLEAR     26  15  63 W10       30.32R WCI  16
6HR MIN TEMP:  26; 6HR MAX TEMP:  32;

STORM LAKE *   CLOUDY    28  19  69 W7        30.32S WCI  21
$$

IAZ055>058-069>071-079>083-090>094-020100-
   SOUTHWEST IOWA

CITY           SKY/WX    TMP DP  RH WIND       PRES   REMARKS
ATLANTIC *     PTCLDY    32  21  64 N6        30.36R WCI  26
AUDUBON *      CLEAR     28  16  59 CALM      30.37R
CLARINDA *     PTCLDY    34  16  47 NW5       30.39S WCI  30
COUNCIL BLFS * CLEAR     36  18  48 NW6       30.34R WCI  31
CRESTON *      CLEAR     30  19  64 NW12      30.36R WCI  21
HARLAN *       CLEAR     30  23  74 N5        30.39R WCI  25
LAMONI         CLEAR     31  19  61 NW8       30.35R WCI  23
6HR MIN TEMP:  26; 6HR MAX TEMP:  35;

RED OAK *      PTCLDY    34  16  47 CALM      30.37S
SHENANDOAH *   PTCLDY    36  16  44 CALM      30.38R
$$

IAZ047>049-059>061-072>074-084-020100-
   CENTRAL IOWA

CITY           SKY/WX    TMP DP  RH WIND       PRES   REMARKS
AMES           CLEAR     27  15  61 NW10      30.36R WCI  17
6HR MIN TEMP:  26; 6HR MAX TEMP:  30;

ANKENY *       CLEAR     30  16  55 NW9       30.38R WCI  22
BOONE *        PTCLDY    28  16  59 W8        30.34S WCI  20
CHARITON *     CLEAR     32  19  59 NW8       30.35R WCI  25
DES MOINES     PTCLDY    30  15  53 NW12      30.38R WCI  20
6HR MIN TEMP:  29; 6HR MAX TEMP:  33;

GRINNELL *     CLEAR     22  16  76 NW6       30.36R WCI  14
6HR MIN TEMP:  22; 6HR MAX TEMP:  29;

KNOXVILLE *    CLEAR     30  18  59 N9        30.35R WCI  22
MARSHALLTOWN   CLEAR     19  13  77 NW7       30.34R WCI  10
6HR MIN TEMP:  19; 6HR MAX TEMP:  26;

NEWTON *       CLEAR     27  16  63 NW7       30.36R WCI  19
PELLA *        CLEAR     28  21  74 NW12      30.38R WCI  18
6HR MIN TEMP:  28; 6HR MAX TEMP:  35;

PERRY *          N/A     29  19  64 NW7       30.37R WCI  22
6HR MIN TEMP:  28; 6HR MAX TEMP:  32;

$$

IAZ004>006-015-016-023>025-035-036-020100-
   NORTH CENTRAL IOWA

CITY           SKY/WX    TMP DP  RH WIND       PRES   REMARKS
ALGONA *       CLEAR     27 N/A N/A NW6       30.32R WCI  20
CLARION *      PTCLDY    25  18  74 W9        30.32S WCI  15
ESTHERVILLE    CLEAR     25  16  68 W10       30.30R WCI  15
6HR MIN TEMP:  24; 6HR MAX TEMP:  29;

FORT DODGE *   PTCLDY    27  16  63 W6        30.35R WCI  20
6HR MIN TEMP:  25; 6HR MAX TEMP:  28;

MASON CITY     CLEAR     22  13  68 W10       30.31R WCI  11
6HR MIN TEMP:  20; 6HR MAX TEMP:  26;

FOREST CITY *  FAIR      23  12  63 W6        30.30S WCI  16
WEBSTER CITY * CLOUDY    25  18  74 W9        30.33R WCI  15
IOWA FALLS *   FAIR      23  16  72 W10       30.33S WCI  13
6HR MIN TEMP:  23; 6HR MAX TEMP:  27;

$$

IAZ007>011-017>019-026>030-037>042-050>054-066-020100-
   NORTHEAST IOWA

CITY           SKY/WX    TMP DP  RH WIND       PRES   REMARKS
CEDAR RAPIDS   CLEAR     21  14  74 NW13      30.34R WCI   9
6HR MIN TEMP:  21; 6HR MAX TEMP:  27;

CHARLES CITY * CLEAR     19  10  68 W8        30.31S WCI   9
CLINTON *      CLEAR     19  12  73 W12       30.35R WCI   7
6HR MIN TEMP:  19; 6HR MAX TEMP:  27;

DECORAH *      CLEAR     19   9  63 VRB7      30.28R WCI  10
DUBUQUE        CLEAR     20  10  65 W13       30.30R WCI   7
6HR MIN TEMP:  20; 6HR MAX TEMP:  25;

MONTICELLO *   CLEAR     21  12  68 W12       30.33R WCI   9
OELWEIN *      CLEAR     16   7  67 W10       30.32S WCI   3
WATERLOO       CLEAR     21  11  65 NW5       30.33S WCI  15
6HR MIN TEMP:  21; 6HR MAX TEMP:  25;

$$

IAZ064-065-067-068-078-020100-
   EAST CENTRAL IOWA

CITY           SKY/WX    TMP DP  RH WIND       PRES   REMARKS
DAVENPORT      CLEAR     21  14  74 W10       30.33R WCI  10
6HR MIN TEMP:  21; 6HR MAX TEMP:  25;

IOWA CITY      PTCLDY    26  17  68 N10       30.37R WCI  16
6HR MIN TEMP:  24; 6HR MAX TEMP:  28;

MT. PLEASANT * CLEAR     25  16  68 W3        30.36R
6HR MIN TEMP:  25; 6HR MAX TEMP:  29;

MUSCATINE *    CLEAR     25  18  74 W8        30.36R WCI  16
QUAD CITIES    CLEAR     25  15  66 W12       30.33R WCI  14
6HR MIN TEMP:  25; 6HR MAX TEMP:  28;

$$

IAZ062-063-075>077-085>089-095>099-020100-
   SOUTHEAST IOWA

CITY           SKY/WX    TMP DP  RH WIND       PRES   REMARKS
BURLINGTON     CLEAR     23  16  74 W6        30.35S WCI  16
6HR MIN TEMP:  23; 6HR MAX TEMP:  28;

FAIRFIELD *    CLEAR     28  18  64 W5        30.35S WCI  23
FORT MADISON * CLEAR     25  18  74 W3        30.37R
KEOKUK *       PTCLDY    27  19  74 W5        30.36S WCI  21
OSKALOOSA *    FAIR      28  19  71 N10       30.36R WCI  18
6HR MIN TEMP:  26; 6HR MAX TEMP:  32;

CENTERVILLE *  FAIR      28  21  74 W5        30.36R WCI  23
OTTUMWA        CLEAR     28  18  66 NW8       30.35R WCI  20
6HR MIN TEMP:  25; 6HR MAX TEMP:  33;

WASHINGTON *   CLEAR     27  23  86 W7        30.35R WCI  19
$$

ABBREVIATIONS USED IN REMARKS
   TC - TEMPERATURES IN CELSIUS
  WCI - WIND CHILL INDEX
   HX - HEAT INDEX
  VSB - VISIBILITY
$$


USA.gov is the U.S. government's official web portal to all federal, state and local government web resources and services.